AVA8591 SKRH-SKBO

Flight info

Callsign AVA8591
Flight time 1h 30m
Altitude 24000
Route VUP1N VUP W19 ELB/N0457F360 UG444 EJA/N0456F370 UW91 ILSEV ILSEV4E
Aircraft A320/M-SDE3FGHIRWY/LB1

Departure

Time 2026-04-24 19:31
Airport Almirante Padilla Airport (SKRH)

Arrival

Time 2026-04-24 21:02
Airport El Dorado International Airport (SKBO)
Time Latitude Longitude Altitude Speed Heading
2026-04-24 19:21 11.52791 -72.91907 52 ft 0 kts 360°
2026-04-24 19:24 11.52787 -72.91907 52 ft 2 kts 360°
2026-04-24 19:24 11.52770 -72.91907 52 ft 2 kts 360°
2026-04-24 19:24 11.52754 -72.91907 50 ft 2 kts 39°
2026-04-24 19:25 11.52745 -72.91920 50 ft 2 kts 90°
2026-04-24 19:25 11.52745 -72.91936 52 ft 0 kts 88°
2026-04-24 19:27 11.52745 -72.91935 51 ft 1 kts 88°
2026-04-24 19:27 11.52744 -72.91914 49 ft 3 kts 103°
2026-04-24 19:27 11.52720 -72.91902 50 ft 4 kts 175°
2026-04-24 19:27 11.52686 -72.91901 52 ft 4 kts 178°
2026-04-24 19:28 11.52646 -72.91907 52 ft 6 kts 214°
2026-04-24 19:28 11.52637 -72.91948 53 ft 8 kts 268°
2026-04-24 19:28 11.52634 -72.92109 52 ft 31 kts 269°
2026-04-24 19:28 11.52629 -72.92328 51 ft 31 kts 268°
2026-04-24 19:29 11.52615 -72.92777 51 ft 32 kts 268°
2026-04-24 19:29 11.52607 -72.93000 52 ft 32 kts 268°
2026-04-24 19:29 11.52601 -72.93218 53 ft 28 kts 268°
2026-04-24 19:30 11.52595 -72.93416 54 ft 28 kts 268°
2026-04-24 19:30 11.52583 -72.93498 51 ft 4 kts 339°
2026-04-24 19:30 11.52593 -72.93485 53 ft 3 kts 64°
2026-04-24 19:30 11.52598 -72.93304 54 ft 64 kts 88°
2026-04-24 19:31 11.52621 -72.92599 51 ft 131 kts 89°
2026-04-24 19:31 11.52668 -72.91521 276 ft 161 kts 85°
2026-04-24 19:31 11.52695 -72.90376 1010 ft 162 kts 87°
2026-04-24 19:31 11.52727 -72.89232 1620 ft 163 kts 88°
2026-04-24 19:32 11.52759 -72.88022 1942 ft 181 kts 89°
2026-04-24 19:32 11.52794 -72.86692 2322 ft 191 kts 89°
2026-04-24 19:32 11.52774 -72.85330 2851 ft 194 kts 102°
2026-04-24 19:32 11.52085 -72.84160 3394 ft 200 kts 143°
2026-04-24 19:33 11.50765 -72.83664 3729 ft 219 kts 175°
2026-04-24 19:33 11.49163 -72.83601 4042 ft 241 kts 178°
2026-04-24 19:33 11.47459 -72.83569 4640 ft 248 kts 179°
2026-04-24 19:33 11.45721 -72.83557 5333 ft 251 kts 184°
2026-04-24 19:34 11.44033 -72.84007 6013 ft 254 kts 207°
2026-04-24 19:34 11.42576 -72.85031 6693 ft 256 kts 218°
2026-04-24 19:34 11.41145 -72.86166 7212 ft 269 kts 218°
2026-04-24 19:34 11.39623 -72.87362 7738 ft 281 kts 218°
2026-04-24 19:35 11.38056 -72.88587 8454 ft 286 kts 218°
2026-04-24 19:35 11.36465 -72.89825 9187 ft 290 kts 218°
2026-04-24 19:35 11.34874 -72.91063 9909 ft 294 kts 218°
2026-04-24 19:35 11.33226 -72.92348 10374 ft 308 kts 218°
2026-04-24 19:36 11.31526 -72.93800 10585 ft 330 kts 227°
2026-04-24 19:36 11.29946 -72.95573 10975 ft 343 kts 229°
2026-04-24 19:36 11.28348 -72.97406 11595 ft 349 kts 227°
2026-04-24 19:36 11.26456 -72.98966 12299 ft 353 kts 209°
2026-04-24 19:37 11.24183 -72.99953 13063 ft 358 kts 201°
2026-04-24 19:37 11.21831 -73.00833 13884 ft 362 kts 199°
2026-04-24 19:37 11.19415 -73.01597 14648 ft 365 kts 197°
2026-04-24 19:37 11.16989 -73.02280 15307 ft 368 kts 195°
2026-04-24 19:38 11.14497 -73.02946 15825 ft 372 kts 195°
2026-04-24 19:38 11.11982 -73.03621 16331 ft 375 kts 196°
2026-04-24 19:38 11.09450 -73.04320 16878 ft 378 kts 196°
2026-04-24 19:38 11.06906 -73.05043 17383 ft 381 kts 197°
2026-04-24 19:39 11.04342 -73.05786 17904 ft 385 kts 197°
2026-04-24 19:39 11.01768 -73.06564 18394 ft 387 kts 198°
2026-04-24 19:39 10.99185 -73.07388 18850 ft 390 kts 198°
2026-04-24 19:39 10.96629 -73.08225 19301 ft 393 kts 199°
2026-04-24 19:40 10.94026 -73.09082 19754 ft 395 kts 199°
2026-04-24 19:40 10.91395 -73.09941 20195 ft 398 kts 199°
2026-04-24 19:40 10.88748 -73.10796 20639 ft 401 kts 199°
2026-04-24 19:40 10.86082 -73.11649 21090 ft 403 kts 198°
2026-04-24 19:41 10.83393 -73.12505 21533 ft 406 kts 198°
2026-04-24 19:41 10.80686 -73.13365 21962 ft 409 kts 198°
2026-04-24 19:41 10.77961 -73.14232 22386 ft 412 kts 198°
2026-04-24 19:41 10.75218 -73.15104 22791 ft 415 kts 198°
2026-04-24 19:42 10.72454 -73.15985 23211 ft 418 kts 199°
2026-04-24 19:42 10.69713 -73.16863 23576 ft 420 kts 199°
2026-04-24 19:42 10.66919 -73.17759 23886 ft 422 kts 199°
2026-04-24 19:42 10.64107 -73.18657 24221 ft 424 kts 198°
2026-04-24 19:43 10.61291 -73.19554 24564 ft 425 kts 198°
2026-04-24 19:43 10.58461 -73.20456 24896 ft 427 kts 198°
2026-04-24 19:43 10.55631 -73.21357 25221 ft 428 kts 198°
2026-04-24 19:43 10.52780 -73.22266 25544 ft 429 kts 198°
2026-04-24 19:44 10.49925 -73.23178 25858 ft 431 kts 198°
2026-04-24 19:44 10.47065 -73.24091 26173 ft 432 kts 198°
2026-04-24 19:44 10.44211 -73.25071 26473 ft 433 kts 204°
2026-04-24 19:44 10.41520 -73.26345 26785 ft 434 kts 206°
2026-04-24 19:45 10.38791 -73.27672 27089 ft 435 kts 206°
2026-04-24 19:45 10.36053 -73.28999 27380 ft 437 kts 206°
2026-04-24 19:45 10.33305 -73.30329 27670 ft 438 kts 206°
2026-04-24 19:45 10.30544 -73.31664 27956 ft 440 kts 206°
2026-04-24 19:46 10.27778 -73.33001 28235 ft 442 kts 206°
2026-04-24 19:46 10.24998 -73.34342 28503 ft 443 kts 206°
2026-04-24 19:46 10.22206 -73.35687 28775 ft 445 kts 206°
2026-04-24 19:46 10.19405 -73.37039 29041 ft 446 kts 206°
2026-04-24 19:47 10.16636 -73.38378 29294 ft 448 kts 206°
2026-04-24 19:47 10.13816 -73.39741 29535 ft 449 kts 205°
2026-04-24 19:47 10.10994 -73.41104 29773 ft 450 kts 205°
2026-04-24 19:47 10.08158 -73.42473 30002 ft 452 kts 205°
2026-04-24 19:48 10.05322 -73.43841 30205 ft 453 kts 205°
2026-04-24 19:48 10.02468 -73.45218 30387 ft 454 kts 205°
2026-04-24 19:48 9.96789 -73.47962 30743 ft 456 kts 205°
2026-04-24 19:49 9.91063 -73.50729 31222 ft 455 kts 205°
2026-04-24 19:49 9.85350 -73.53485 31729 ft 454 kts 205°
2026-04-24 19:50 9.76909 -73.57544 31897 ft 439 kts 205°
2026-04-24 19:50 9.74191 -73.58852 31895 ft 438 kts 205°
2026-04-24 19:51 9.66103 -73.63122 31900 ft 437 kts 208°
2026-04-24 19:52 9.58118 -73.67589 31891 ft 437 kts 208°
2026-04-24 19:52 9.52773 -73.70519 31889 ft 437 kts 208°
2026-04-24 19:53 9.47461 -73.73399 31887 ft 436 kts 207°
2026-04-24 19:54 9.39429 -73.77754 31882 ft 436 kts 207°
2026-04-24 19:54 9.34082 -73.80659 31879 ft 436 kts 207°
2026-04-24 19:55 9.29637 -73.83074 31871 ft 436 kts 207°
2026-04-24 19:55 9.23387 -73.86473 31874 ft 436 kts 207°
2026-04-24 19:56 9.18083 -73.89365 31875 ft 436 kts 207°
2026-04-24 19:56 9.12733 -73.92275 31873 ft 436 kts 207°
2026-04-24 19:57 9.07340 -73.95085 31875 ft 436 kts 201°
2026-04-24 19:57 9.01455 -73.96362 31868 ft 434 kts 181°
2026-04-24 19:58 8.95467 -73.95978 31870 ft 434 kts 175°
2026-04-24 19:58 8.89438 -73.95494 31864 ft 435 kts 176°
2026-04-24 19:59 8.83407 -73.95024 31873 ft 435 kts 175°
2026-04-24 19:59 8.77376 -73.94544 31875 ft 435 kts 175°
2026-04-24 20:00 8.71382 -73.94065 31878 ft 435 kts 175°
2026-04-24 20:00 8.65353 -73.93579 31879 ft 435 kts 175°
2026-04-24 20:01 8.59322 -73.93090 31874 ft 435 kts 175°
2026-04-24 20:01 8.53299 -73.92604 31878 ft 435 kts 175°
2026-04-24 20:02 8.48282 -73.92195 31883 ft 435 kts 175°
2026-04-24 20:02 8.44234 -73.91867 31537 ft 438 kts 175°
2026-04-24 20:02 8.41211 -73.91620 31349 ft 435 kts 175°
2026-04-24 20:03 8.35193 -73.91133 31746 ft 437 kts 175°
2026-04-24 20:03 8.32161 -73.90895 31877 ft 436 kts 175°
2026-04-24 20:03 8.29136 -73.90659 31899 ft 436 kts 175°
2026-04-24 20:04 8.23101 -73.90181 31900 ft 435 kts 175°
2026-04-24 20:04 8.17069 -73.89690 31898 ft 435 kts 175°
2026-04-24 20:05 8.11067 -73.89210 31897 ft 435 kts 175°
2026-04-24 20:05 8.05033 -73.88734 31897 ft 435 kts 175°
2026-04-24 20:06 7.99001 -73.88249 31891 ft 435 kts 175°
2026-04-24 20:06 7.92973 -73.87766 31885 ft 435 kts 175°
2026-04-24 20:07 7.87958 -73.87366 31885 ft 435 kts 175°
2026-04-24 20:07 7.80951 -73.86805 31879 ft 435 kts 175°
2026-04-24 20:08 7.74919 -73.86320 31880 ft 435 kts 175°
2026-04-24 20:08 7.68879 -73.85836 31873 ft 435 kts 175°
2026-04-24 20:09 7.62837 -73.85355 31876 ft 436 kts 175°
2026-04-24 20:09 7.56795 -73.84870 31871 ft 436 kts 175°
2026-04-24 20:10 7.50792 -73.84383 31875 ft 436 kts 175°
2026-04-24 20:10 7.44745 -73.83902 31873 ft 436 kts 175°
2026-04-24 20:11 7.38699 -73.83422 31873 ft 436 kts 175°
2026-04-24 20:11 7.32657 -73.82939 31860 ft 435 kts 175°
2026-04-24 20:12 7.26670 -73.82463 31846 ft 435 kts 175°
2026-04-24 20:12 7.20629 -73.81984 31833 ft 435 kts 175°
2026-04-24 20:13 7.14590 -73.81500 31824 ft 435 kts 175°
2026-04-24 20:13 7.08572 -73.81013 31835 ft 426 kts 175°
2026-04-24 20:13 7.05675 -73.80780 31836 ft 410 kts 175°
2026-04-24 20:14 7.02921 -73.80563 31835 ft 394 kts 176°
2026-04-24 20:14 7.00243 -73.80745 31834 ft 380 kts 193°
2026-04-24 20:14 6.97809 -73.81671 31839 ft 373 kts 209°
2026-04-24 20:14 6.95746 -73.83250 31839 ft 374 kts 225°
2026-04-24 20:15 6.94198 -73.85354 31836 ft 377 kts 241°
2026-04-24 20:15 6.93293 -73.87835 31840 ft 381 kts 258°
2026-04-24 20:15 6.93132 -73.90495 31848 ft 385 kts 275°
2026-04-24 20:15 6.93750 -73.93128 31850 ft 389 kts 292°
2026-04-24 20:16 6.95119 -73.95482 31848 ft 392 kts 309°
2026-04-24 20:16 6.97100 -73.97306 31848 ft 394 kts 327°
2026-04-24 20:16 6.99570 -73.98490 31846 ft 394 kts 345°
2026-04-24 20:17 7.04984 -73.99300 31843 ft 394 kts 356°
2026-04-24 20:17 7.13209 -73.99722 31836 ft 395 kts
2026-04-24 20:18 7.15015 -73.99522 31830 ft 393 kts 14°
2026-04-24 20:18 7.18313 -73.98133 31832 ft 388 kts 37°
2026-04-24 20:18 7.20304 -73.96336 31828 ft 383 kts 54°
2026-04-24 20:18 7.21680 -73.94067 31828 ft 378 kts 71°
2026-04-24 20:19 7.22340 -73.91536 31827 ft 373 kts 88°
2026-04-24 20:19 7.22259 -73.88946 31820 ft 369 kts 104°
2026-04-24 20:19 7.21475 -73.86510 31816 ft 365 kts 119°
2026-04-24 20:19 7.20075 -73.84403 31816 ft 362 kts 135°
2026-04-24 20:20 7.18174 -73.82766 31813 ft 360 kts 150°
2026-04-24 20:20 7.15941 -73.81725 31808 ft 359 kts 165°
2026-04-24 20:20 7.10997 -73.80950 31806 ft 361 kts 175°
2026-04-24 20:21 7.05966 -73.80655 31804 ft 363 kts 177°
2026-04-24 20:21 7.00917 -73.80666 31805 ft 365 kts 192°
2026-04-24 20:22 6.98548 -73.81569 31808 ft 366 kts 210°
2026-04-24 20:22 6.96588 -73.83195 31801 ft 368 kts 229°
2026-04-24 20:22 6.95269 -73.85369 31802 ft 372 kts 248°
2026-04-24 20:22 6.94744 -73.87920 31839 ft 379 kts 268°
2026-04-24 20:23 6.95121 -73.90560 31841 ft 386 kts 288°
2026-04-24 20:23 6.96392 -73.92935 31842 ft 390 kts 309°
2026-04-24 20:23 6.98423 -73.94725 31846 ft 392 kts 331°
2026-04-24 20:23 7.00976 -73.95689 31845 ft 393 kts 351°
2026-04-24 20:24 7.06431 -73.96254 31850 ft 395 kts 356°
2026-04-24 20:24 7.11923 -73.96561 31848 ft 395 kts
2026-04-24 20:25 7.14589 -73.96206 31844 ft 391 kts 20°
2026-04-24 20:25 7.16979 -73.94965 31827 ft 386 kts 41°
2026-04-24 20:25 7.18782 -73.93017 31822 ft 379 kts 61°
2026-04-24 20:25 7.19802 -73.90602 31842 ft 375 kts 81°
2026-04-24 20:26 7.19943 -73.87998 31849 ft 372 kts 101°
2026-04-24 20:26 7.19217 -73.85526 31849 ft 368 kts 120°
2026-04-24 20:26 7.17732 -73.83450 31845 ft 365 kts 139°
2026-04-24 20:26 7.15666 -73.81993 31844 ft 364 kts 157°
2026-04-24 20:27 7.13281 -73.81295 31845 ft 363 kts 172°
2026-04-24 20:27 7.10764 -73.80986 31839 ft 365 kts 174°
2026-04-24 20:27 7.05691 -73.80644 31841 ft 366 kts 176°
2026-04-24 20:28 7.00628 -73.80707 31833 ft 366 kts 194°
2026-04-24 20:28 6.98287 -73.81691 31821 ft 366 kts 212°
2026-04-24 20:28 6.96379 -73.83386 31815 ft 369 kts 231°
2026-04-24 20:29 6.95462 -73.84823 31809 ft 371 kts 243°
2026-04-24 20:29 6.94668 -73.88166 31834 ft 379 kts 269°
2026-04-24 20:29 6.95098 -73.90790 31843 ft 385 kts 290°
2026-04-24 20:29 6.96416 -73.93139 31841 ft 389 kts 310°
2026-04-24 20:30 6.98476 -73.94898 31848 ft 391 kts 332°
2026-04-24 20:30 7.01006 -73.95827 31845 ft 392 kts 351°
2026-04-24 20:30 7.06470 -73.96397 31845 ft 394 kts 356°
2026-04-24 20:31 7.11947 -73.96698 31848 ft 394 kts
2026-04-24 20:31 7.14614 -73.96349 31842 ft 391 kts 20°
2026-04-24 20:31 7.17009 -73.95131 31831 ft 385 kts 40°
2026-04-24 20:32 7.18833 -73.93202 31820 ft 379 kts 60°
2026-04-24 20:32 7.19880 -73.90804 31842 ft 375 kts 81°
2026-04-24 20:32 7.20068 -73.88203 31852 ft 372 kts 100°
2026-04-24 20:32 7.19406 -73.85747 31849 ft 368 kts 118°
2026-04-24 20:33 7.17954 -73.83609 31849 ft 369 kts 137°
2026-04-24 20:33 7.15893 -73.82042 31844 ft 377 kts 155°
2026-04-24 20:33 7.13450 -73.81238 31840 ft 386 kts 173°
2026-04-24 20:33 7.10676 -73.81302 31841 ft 397 kts 188°
2026-04-24 20:34 7.05116 -73.82162 31840 ft 417 kts 188°
2026-04-24 20:34 6.99258 -73.83067 31839 ft 433 kts 188°
2026-04-24 20:35 6.93261 -73.83974 31841 ft 437 kts 188°
2026-04-24 20:35 6.87248 -73.84888 31845 ft 437 kts 188°
2026-04-24 20:36 6.81267 -73.85804 31851 ft 438 kts 188°
2026-04-24 20:36 6.75242 -73.86732 31860 ft 438 kts 188°
2026-04-24 20:37 6.69219 -73.87652 31869 ft 438 kts 188°
2026-04-24 20:37 6.63190 -73.88568 31870 ft 438 kts 187°
2026-04-24 20:38 6.57162 -73.89492 31872 ft 438 kts 188°
2026-04-24 20:38 6.51171 -73.90409 31876 ft 438 kts 187°
2026-04-24 20:39 6.45142 -73.91332 31875 ft 438 kts 188°
2026-04-24 20:39 6.39126 -73.92405 31542 ft 439 kts 189°
2026-04-24 20:40 6.36129 -73.92988 31312 ft 438 kts 190°
2026-04-24 20:40 6.33149 -73.93577 31079 ft 436 kts 190°
2026-04-24 20:40 6.30171 -73.94159 30854 ft 435 kts 190°
2026-04-24 20:40 6.27242 -73.94719 30625 ft 434 kts 189°
2026-04-24 20:41 6.24280 -73.95277 30391 ft 433 kts 189°
2026-04-24 20:41 6.21326 -73.95828 30177 ft 431 kts 189°
2026-04-24 20:41 6.18375 -73.96376 29950 ft 430 kts 189°
2026-04-24 20:41 6.15432 -73.96920 29690 ft 429 kts 189°
2026-04-24 20:42 6.12506 -73.97463 29427 ft 428 kts 189°
2026-04-24 20:42 6.09579 -73.98005 29162 ft 426 kts 189°
2026-04-24 20:42 6.06669 -73.98547 28907 ft 424 kts 189°
2026-04-24 20:42 6.03774 -73.99089 28655 ft 423 kts 189°
2026-04-24 20:43 6.00884 -73.99632 28403 ft 421 kts 190°
2026-04-24 20:43 5.98009 -74.00176 28152 ft 420 kts 189°
2026-04-24 20:43 5.95181 -74.00717 27908 ft 419 kts 190°
2026-04-24 20:43 5.92324 -74.01262 27662 ft 417 kts 190°
2026-04-24 20:44 5.89478 -74.01806 27416 ft 416 kts 190°
2026-04-24 20:44 5.86642 -74.02347 27167 ft 414 kts 190°
2026-04-24 20:44 5.83815 -74.02885 26927 ft 413 kts 190°
2026-04-24 20:44 5.80997 -74.03419 26695 ft 412 kts 190°
2026-04-24 20:45 5.78184 -74.03952 26466 ft 411 kts 190°
2026-04-24 20:45 5.75379 -74.04481 26224 ft 410 kts 190°
2026-04-24 20:45 5.72580 -74.05009 25993 ft 409 kts 190°
2026-04-24 20:45 5.69791 -74.05537 25763 ft 408 kts 190°
2026-04-24 20:46 5.67048 -74.06057 25535 ft 406 kts 190°
2026-04-24 20:46 5.64270 -74.06583 25307 ft 405 kts 190°
2026-04-24 20:46 5.61501 -74.07107 25082 ft 404 kts 191°
2026-04-24 20:46 5.58743 -74.07630 24859 ft 403 kts 191°
2026-04-24 20:47 5.56007 -74.08147 24499 ft 398 kts 191°
2026-04-24 20:47 5.53290 -74.08661 24031 ft 397 kts 191°
2026-04-24 20:47 5.50582 -74.09175 23553 ft 395 kts 191°
2026-04-24 20:47 5.47886 -74.09687 23023 ft 394 kts 191°
2026-04-24 20:48 5.45244 -74.10221 22550 ft 390 kts 196°
2026-04-24 20:48 5.42692 -74.11195 22078 ft 386 kts 208°
2026-04-24 20:48 5.40486 -74.12633 21627 ft 382 kts 220°
2026-04-24 20:48 5.38606 -74.14492 21204 ft 378 kts 229°
2026-04-24 20:49 5.36875 -74.16463 20777 ft 375 kts 229°
2026-04-24 20:49 5.35151 -74.18416 20348 ft 373 kts 229°
2026-04-24 20:49 5.33437 -74.20352 19923 ft 370 kts 229°
2026-04-24 20:49 5.31728 -74.22277 19504 ft 368 kts 229°
2026-04-24 20:50 5.30029 -74.24190 19084 ft 366 kts 229°
2026-04-24 20:50 5.28341 -74.26093 18664 ft 364 kts 229°
2026-04-24 20:50 5.26691 -74.27960 18262 ft 362 kts 229°
2026-04-24 20:50 5.25126 -74.29890 18092 ft 350 kts 238°
2026-04-24 20:51 5.24085 -74.32049 17945 ft 338 kts 253°
2026-04-24 20:51 5.23630 -74.34316 17961 ft 330 kts 266°
2026-04-24 20:51 5.23691 -74.36611 17962 ft 329 kts 275°
2026-04-24 20:51 5.23871 -74.38883 17949 ft 329 kts 275°
2026-04-24 20:52 5.23991 -74.40411 17949 ft 328 kts 275°
2026-04-24 20:52 5.24167 -74.42694 17919 ft 329 kts 273°
2026-04-24 20:52 5.23716 -74.45669 17364 ft 327 kts 247°
2026-04-24 20:52 5.22505 -74.47582 16997 ft 326 kts 227°
2026-04-24 20:53 5.20704 -74.48939 16635 ft 326 kts 206°
2026-04-24 20:53 5.18534 -74.49575 16284 ft 327 kts 186°
2026-04-24 20:53 5.16998 -74.49550 16043 ft 328 kts 172°
2026-04-24 20:53 5.14794 -74.48962 15695 ft 328 kts 164°
2026-04-24 20:54 5.12646 -74.48288 15340 ft 328 kts 164°
2026-04-24 20:54 5.10471 -74.47600 14991 ft 327 kts 163°
2026-04-24 20:54 5.08312 -74.46917 14647 ft 325 kts 164°
2026-04-24 20:54 5.06163 -74.46241 14291 ft 323 kts 164°
2026-04-24 20:55 5.04019 -74.45569 13946 ft 322 kts 164°
2026-04-24 20:55 5.01879 -74.44897 13619 ft 321 kts 164°
2026-04-24 20:55 4.99749 -74.44231 13277 ft 319 kts 164°
2026-04-24 20:55 4.97634 -74.43568 12959 ft 316 kts 163°
2026-04-24 20:56 4.95594 -74.42928 12846 ft 307 kts 164°
2026-04-24 20:56 4.93620 -74.42310 12717 ft 297 kts 164°
2026-04-24 20:56 4.91728 -74.41551 12620 ft 290 kts 150°
2026-04-24 20:56 4.90178 -74.40313 12520 ft 282 kts 133°
2026-04-24 20:57 4.88906 -74.38845 12358 ft 277 kts 131°
2026-04-24 20:57 4.87643 -74.37388 12077 ft 277 kts 131°
2026-04-24 20:57 4.86381 -74.35934 11791 ft 277 kts 131°
2026-04-24 20:57 4.85118 -74.34480 11525 ft 275 kts 131°
2026-04-24 20:58 4.83883 -74.33059 11297 ft 273 kts 131°
2026-04-24 20:58 4.82640 -74.31630 11051 ft 270 kts 131°
2026-04-24 20:58 4.81415 -74.30221 10904 ft 264 kts 131°
2026-04-24 20:58 4.80214 -74.28839 10827 ft 262 kts 131°
2026-04-24 20:59 4.79036 -74.27448 10735 ft 261 kts 129°
2026-04-24 20:59 4.77943 -74.26036 10626 ft 251 kts 127°
2026-04-24 20:59 4.76898 -74.24647 10329 ft 248 kts 127°
2026-04-24 20:59 4.75879 -74.23297 10044 ft 238 kts 127°
2026-04-24 21:00 4.74887 -74.21986 9740 ft 233 kts 127°
2026-04-24 21:00 4.73950 -74.20748 9451 ft 218 kts 127°
2026-04-24 21:00 4.73073 -74.19590 9149 ft 198 kts 129°
2026-04-24 21:00 4.72273 -74.18533 8842 ft 183 kts 129°
2026-04-24 21:01 4.71527 -74.17548 8569 ft 175 kts 130°
2026-04-24 21:01 4.70796 -74.16582 8366 ft 166 kts 129°
2026-04-24 21:01 4.70236 -74.15851 8363 ft 91 kts 126°
2026-04-24 21:01 4.69984 -74.15510 8364 ft 52 kts 125°
2026-04-24 21:02 4.69797 -74.15267 8365 ft 27 kts 128°
2026-04-24 21:02 4.69726 -74.15092 8365 ft 27 kts 104°
2026-04-24 21:02 4.69699 -74.14908 8365 ft 26 kts 98°
2026-04-24 21:02 4.69789 -74.14782 8366 ft 17 kts 34°
2026-04-24 21:03 4.69850 -74.14723 8366 ft 8 kts 77°
2026-04-24 21:03 4.69831 -74.14685 8366 ft 5 kts 126°
2026-04-24 21:03 4.69814 -74.14662 8366 ft 3 kts 127°
2026-04-24 21:03 4.69802 -74.14640 8366 ft 7 kts 103°
2026-04-24 21:04 4.69812 -74.14599 8366 ft 5 kts 65°
2026-04-24 21:04 4.69819 -74.14584 8366 ft 0 kts 66°